User: anonymous   Login
Location: Fargo
(46.8667°N, 96.7833°W)
Time: 08:18:10
(UTC-06:00)
Language:

XW-2F - Orbit

View from above orbital plane
View from above orbital plane
View from above satellite
View from above satellite

Ground track
Ground track

The orbit data is extracted from the following two-line orbital elements,

1 40910U 15049M   19347.12203111  .00000980  00000-0  52064-4 0  9996
2 40910  97.4647 348.2912 0013226 295.8407 128.3552 15.17589826233928
Epoch (UTC): 13 December 2019 02:55:43
Eccentricity: 0.0013226
inclination: 97.4647°
perigee height: 504 km
apogee height: 522 km
right ascension of ascending node: 348.2912°
argument of perigee: 295.8407°
revolutions per day: 15.17589826
mean anomaly at epoch: 128.3552°
orbit number at epoch: 23392

The dashed part of the orbit path shows where the satellite is in the earth's shadow,  

DLR